DW3426 Tranby NO current weather conditions

sailwx.info

Wind from 059 at 0 knots

Air temperature 17.2° C
Dewpoint 11.0° C

Last reported at 2019-Jun-19 12:46 UTC.
Time now 2019-Jun-19 13:30 UTC

Location: N 59°49' E 010°16'.
View on Google Maps.

See reports from other nearby stations

  
Tides and Currents Weather Stations Pressure Air Temp Water Temp Dewpoint Dewpoint Depression Visibility Wind Speed Wind Dir Waves Ship Positions
date/time (UTC)wind fromknots sea level pressurealtimeterstation pressurevisibilityair tempwater tempwave heightnotes
2019-Jun-19 13:01 059 0 17.2
2019-Jun-19 12:46 059 0 17.2
2019-Jun-19 12:30 059 16.7
2019-Jun-19 12:15 060 0 16.7
2019-Jun-19 12:00 059 0 17.2
2019-Jun-19 11:45 060 1 17.2
2019-Jun-19 11:30 052 0 17.2
2019-Jun-19 11:15 051 0 17.2
2019-Jun-19 11:00 051 0 16.7
2019-Jun-19 10:45 051 16.1
2019-Jun-19 10:30 051 1 16.1
2019-Jun-19 10:15 051 0 16.1
2019-Jun-19 10:00 051 1 16.1
2019-Jun-19 09:45 051 0 15.6
2019-Jun-19 09:30 050 1 15.6
2019-Jun-19 09:15 028 15.0
2019-Jun-19 09:00 028 14.4
2019-Jun-19 08:46 028 14.4
2019-Jun-19 08:31 028 14.4
2019-Jun-19 08:16 028 13.9
2019-Jun-19 08:01 028 13.9
2019-Jun-19 07:47 028 13.3
2019-Jun-19 07:31 028 1 13.3
2019-Jun-19 07:16 019 0 13.3
2019-Jun-19 07:01 019 12.8
2019-Jun-19 06:46 019 12.8
2019-Jun-19 06:31 019 12.2
2019-Jun-19 06:16 019 12.2
2019-Jun-19 06:03 019 12.2
2019-Jun-19 05:47 019 11.7
2019-Jun-19 05:31 019 11.7
2019-Jun-19 05:17 019 11.1
2019-Jun-19 05:01 019 11.1
2019-Jun-19 04:46 019 11.1
2019-Jun-19 04:31 019 11.1
2019-Jun-19 04:15 019 11.1
2019-Jun-19 04:01 019 11.1
2019-Jun-19 03:46 019 10.6
2019-Jun-19 03:31 019 10.6
2019-Jun-19 03:16 019 10.6
2019-Jun-19 03:01 019 10.0
2019-Jun-19 02:46 019 10.0
2019-Jun-19 02:31 019 10.0
2019-Jun-19 02:15 019 0 10.0
2019-Jun-19 02:01 019 0 10.0
2019-Jun-19 01:46 019 0 10.0
2019-Jun-19 01:31 019 10.0
2019-Jun-19 01:16 019 10.6
2019-Jun-19 01:01 019 10.6
2019-Jun-19 00:46 019 11.1
2019-Jun-19 00:30 019 11.1
2019-Jun-19 00:15 019 11.7
2019-Jun-19 00:01 019 11.7
2019-Jun-18 23:45 019 12.2
2019-Jun-18 23:30 019 12.2
2019-Jun-18 23:15 019 1 12.8
2019-Jun-18 23:00 023 2 12.8
2019-Jun-18 22:45 024 1 12.8
2019-Jun-18 22:30 024 1 13.3
2019-Jun-18 22:15 024 1 13.3
2019-Jun-18 22:00 024 0 13.9
2019-Jun-18 21:45 024 1 13.9
2019-Jun-18 21:15 011 1 14.4
2019-Jun-18 21:00 048 1 14.4
2019-Jun-18 20:45 343 2 14.4
2019-Jun-18 20:30 324 4 14.4
2019-Jun-18 20:15 327 4 14.4
2019-Jun-18 20:00 341 3 15.0
2019-Jun-18 19:45 005 2 15.6
2019-Jun-18 19:30 012 1 15.6
2019-Jun-18 19:15 013 2 15.6
2019-Jun-18 19:00 344 3 16.1
2019-Jun-18 18:45 355 4 16.1
2019-Jun-18 18:30 005 4 16.7
2019-Jun-18 18:16 010 5 17.2
2019-Jun-18 18:02 315 4 16.7
2019-Jun-18 17:46 332 4 16.7
2019-Jun-18 17:31 005 5 17.2
2019-Jun-18 17:16 346 4 17.8
2019-Jun-18 17:01 350 4 17.8
2019-Jun-18 16:46 315 6 17.8
2019-Jun-18 16:31 329 5 18.3
2019-Jun-18 16:17 009 3 18.9
2019-Jun-18 16:01 343 5 18.9
2019-Jun-18 15:46 320 6 19.4
2019-Jun-18 15:31 345 5 20.6
2019-Jun-18 15:16 040 5 20.6
2019-Jun-18 15:01 052 5 20.0
2019-Jun-18 14:46 350 5 18.9
2019-Jun-18 14:31 005 4 17.8
2019-Jun-18 14:16 355 5 18.3
2019-Jun-18 14:01 350 5 18.3
2019-Jun-18 13:46 029 3 18.3
2019-Jun-18 13:30 325 4 18.3
2019-Jun-18 13:16 360 5 18.3
2019-Jun-18 13:04 005 4 18.3
2019-Jun-18 12:46 019 3 18.3
2019-Jun-18 12:31 340 4 18.9
2019-Jun-18 12:16 355 2 20.0
2019-Jun-18 12:00 313 4 20.0
2019-Jun-18 11:46 005 4 19.4
2019-Jun-18 11:31 043 4 18.9
2019-Jun-18 11:15 323 2 18.9
2019-Jun-18 11:00 027 4 18.3
2019-Jun-18 10:45 331 4 17.2
2019-Jun-18 10:31 005 2 16.7
2019-Jun-18 10:15 332 3 16.1
2019-Jun-18 10:00 012 2 15.6
2019-Jun-18 09:45 053 2 16.1
2019-Jun-18 09:30 360 4 15.6
2019-Jun-18 09:15 080 3 15.6
2019-Jun-18 09:00 360 4 15.6
2019-Jun-18 08:45 360 4 15.0
2019-Jun-18 08:30 015 2 15.0
2019-Jun-18 08:17 037 3 14.4
2019-Jun-18 08:02 027 4 13.9
2019-Jun-18 07:46 010 4 13.3
2019-Jun-18 07:31 355 4 13.3
2019-Jun-18 07:16 005 2 12.8
2019-Jun-18 07:01 023 3 12.8
2019-Jun-18 06:46 005 5 12.2
2019-Jun-18 06:31 355 4 12.2
2019-Jun-18 06:16 005 4 12.2
2019-Jun-18 06:00 069 3 12.2
2019-Jun-18 05:46 005 3 12.2
2019-Jun-18 05:30 332 2 12.2
2019-Jun-18 05:16 047 2 11.7
2019-Jun-18 05:01 015 3 11.7
2019-Jun-18 04:45 017 1 11.7
2019-Jun-18 04:30 355 3 11.1
2019-Jun-18 04:15 360 2 11.1
2019-Jun-18 04:01 355 1 11.1
2019-Jun-18 03:46 080 0 11.1
2019-Jun-18 03:31 087 0 11.1
2019-Jun-18 03:15 005 2 10.6
2019-Jun-18 03:00 329 3 10.6
2019-Jun-18 02:45 005 3 10.6
2019-Jun-18 02:31 355 3 10.6
2019-Jun-18 02:16 032 3 10.6
2019-Jun-18 02:00 013 4 11.1
2019-Jun-18 01:46 025 3 11.1
2019-Jun-18 01:30 005 4 11.1
2019-Jun-18 01:15 061 3 11.1
2019-Jun-18 01:00 028 3 11.1
2019-Jun-18 00:45 360 4 11.1
2019-Jun-18 00:30 029 4 11.1
2019-Jun-18 00:15 355 5 11.1
2019-Jun-18 00:01 005 4 11.1
2019-Jun-17 23:46 360 4 11.1
2019-Jun-17 23:30 345 4 11.7
2019-Jun-17 23:15 011 3 11.7
2019-Jun-17 23:00 355 3 11.7
2019-Jun-17 22:45 037 4 11.7
2019-Jun-17 22:30 360 4 11.7
2019-Jun-17 22:17 360 3 12.2
2019-Jun-17 22:01 360 4 12.2
2019-Jun-17 21:48 339 3 12.2
2019-Jun-17 21:32 005 4 12.2
2019-Jun-17 21:16 349 4 12.8
2019-Jun-17 21:03 065 4 12.8
2019-Jun-17 20:46 360 3 12.8
2019-Jun-17 20:32 360 5 12.8
2019-Jun-17 20:16 348 5 13.3
2019-Jun-17 20:01 331 5 13.3
2019-Jun-17 19:47 323 6 13.9
2019-Jun-17 19:31 350 5 14.4
2019-Jun-17 19:17 078 5 14.4
2019-Jun-17 19:01 325 5 14.4
2019-Jun-17 18:47 327 4 15.0
2019-Jun-17 18:32 351 6 15.6